Snowfall_Accumulation
0.0 0.0 0.0 0.0 0.0 0.0 0.0 0.0 0.0 0.0 0.0 0.0 0.0 0.0 0.0 0.0 0.0 0.0 0.0 0.0 0.0 0.0 0.0 0.0 0.0 0.0 0.0 0.0 0.0 0.0 0.0 0.0 0.0 0.0 0.0 0.0 0.0 0.0 0.0 0.0 0.0 0.0 0.0 0.0
0.0 0.0 0.0 0.0 0.0 0.0 0.0 0.0 0.0 0.0 0.0 0.0 0.0 0.0 0.0 0.0 0.0 0.0 0.0 0.0 0.0 0.0 0.0 0.0 0.0 0.0 0.0 0.0 0.0 0.0 0.0 0.0 0.0 0.0 0.0 0.0 0.0 0.0 0.0 0.0 0.0 0.0 0.0 0.0
0.0 0.0 0.0 0.0 0.0 0.0 0.0 0.0 0.0 0.0 0.0 0.0 0.0 0.0 0.0 0.0 0.0 0.0 0.0 0.0 0.0 0.0 0.0 0.0 0.0 0.0 0.0 0.0 0.0 0.0 0.0 0.0 0.0 0.0 0.0 0.0 0.0 0.0 0.0 0.0 0.0 0.0 0.0 0.0
0.0 0.0 0.0 0.0 0.0 0.0 0.0 0.0 0.0 0.0 0.0 0.0 0.0 0.0 0.0 0.0 0.0 0.0 0.0 0.0 0.0 0.0 0.0 0.0 0.0 0.0 0.0 0.0 0.0 0.0 0.0 0.0 0.0 0.0 0.0 0.0 0.0 0.0 0.0 0.0 0.0 0.0 0.0 0.0
0.0 0.0 0.0 0.0 0.0 0.0 0.0 0.0 0.0 0.0 0.0 0.0 0.0 0.0 0.0 0.0 0.0 0.0 0.0 0.0 0.0 0.0 0.0 0.0 0.0 0.0 0.0 0.0 0.0 0.0 0.0 0.0 0.0 0.0 0.0 0.0 0.0 0.0 0.0 0.0 0.0 0.0 0.0 0.0
0.0 0.0 0.0 0.0 0.0 0.0 0.0 0.0 0.0 0.0 0.0 0.5 0.0 0.0 0.0 0.0 0.0 0.0 0.0 0.0 0.0 0.0 0.0 0.0 0.0 0.0 0.0 0.0 0.0 0.0 0.0 0.0 0.0 0.0 0.0 0.0 0.0 0.0 0.0 0.0 0.0 0.0 0.0 0.0
0.0 0.0 0.0 0.0 0.0 0.0 0.0 0.0 0.6 1.2 3.2 1.7 0.0 0.3 0.0 0.0 0.0 0.0 0.0 0.0 0.0 0.0 0.0 0.0 0.0 0.0 0.0 0.0 0.0 0.0 0.0 0.0 0.0 0.0 0.0 0.0 0.0 0.0 0.0 0.0 0.0 0.0 0.0 0.0
0.0 0.0 0.0 0.0 0.0 0.0 0.0 0.0 1.2 2.9 2.4 1.1 0.7 0.5 0.0 0.0 0.0 0.0 0.0 0.0 0.0 0.0 0.0 0.0 0.0 0.0 0.0 0.0 0.0 0.0 0.0 0.0 0.0 0.0 0.0 0.0 0.0 0.0 0.0 0.0 0.0 0.0 0.0 0.0
0.0 0.0 0.0 0.0 0.0 0.0 0.0 0.0 0.0 0.8 5.0 3.6 0.0 0.0 0.0 0.0 0.0 0.0 0.0 0.0 0.0 0.0 0.0 0.0 0.0 0.0 0.0 0.0 0.0 0.0 0.0 0.0 0.0 0.0 0.0 0.0 0.0 0.0 0.0 0.0 0.0 0.0 0.0 0.0
0.0 0.1 0.0 0.0 0.0 0.0 0.0 0.0 0.5 0.5 5.2 4.2 0.0 0.0 0.0 0.0 0.0 0.0 0.0 0.0 0.0 0.0 0.0 0.0 0.0 0.0 0.0 0.0 0.0 0.0 0.0 0.0 0.0 0.0 0.0 0.0 0.0 0.0 0.0 0.0 0.0 0.0 0.0 0.0
0.0 0.0 0.0 0.0 0.0 0.0 0.0 0.0 0.0 0.0 0.6 3.1 2.6 0.1 0.0 0.0 0.0 0.0 0.0 0.0 0.0 0.0 0.0 0.0 0.0 0.0 0.0 0.0 0.0 0.0 0.0 0.0 0.0 0.0 0.0 0.0 0.0 0.0 0.0 0.0 0.0 0.0 0.0 0.0
0.0 0.0 3.3 0.0 0.0 0.0 0.0 0.0 0.0 1.1 0.8 0.8 1.5 1.3 0.0 0.0 0.0 0.0 0.0 0.0 0.0 0.0 0.0 0.0 0.0 0.0 0.0 0.0 0.0 0.0 0.0 0.0 0.0 0.0 0.0 0.0 0.0 0.0 0.0 0.0 0.0 0.0 0.0 0.0
0.0 0.9 6.5 3.0 0.0 0.0 0.0 0.0 0.0 0.0 1.1 3.4 7.2 2.2 0.0 0.0 0.0 0.0 0.0 0.0 0.0 0.0 0.0 0.0 0.0 0.0 0.0 0.0 0.0 0.0 0.0 0.0 0.0 0.0 0.0 0.0 0.0 0.0 0.0 0.0 0.0 0.0 0.0 0.0
nan 0.6 1.3 2.3 0.7 0.0 0.4 0.0 0.0 0.1 3.3 1.6 1.3 0.1 0.0 0.0 0.0 0.0 0.0 0.0 0.0 0.0 0.0 0.0 0.0 0.0 0.0 0.0 0.0 0.0 0.0 0.0 0.0 0.0 0.0 0.0 0.0 0.0 0.0 0.0 0.0 0.0 0.0 0.0
0.0 3.4 0.3 0.2 0.0 0.1 0.6 0.4 0.0 0.0 0.0 0.8 0.2 0.7 0.4 1.0 0.5 0.1 0.0 0.0 0.0 0.0 0.0 0.0 0.0 0.0 0.0 0.0 0.0 0.0 0.0 0.0 0.0 0.0 0.0 0.0 0.0 0.0 0.2 0.6 0.8 0.7 0.7 0.0
0.0 4.3 1.0 3.2 0.1 0.1 0.7 0.2 0.3 0.3 0.3 0.3 0.0 0.0 0.2 0.1 0.0 0.0 0.0 0.0 0.0 0.0 0.0 0.0 0.0 0.0 0.0 0.0 0.0 0.0 0.0 0.0 0.0 0.0 0.0 0.0 1.4 1.7 1.8 1.7 1.2 0.9 0.8 0.8
0.6 2.8 8.6 14.0 0.7 0.6 6.9 1.0 0.0 0.0 0.0 0.0 0.4 1.4 1.5 0.5 0.1 0.1 0.1 0.1 0.0 0.0 0.0 0.0 0.0 0.0 0.0 0.0 0.0 0.0 0.0 0.4 1.5 1.8 2.5 2.4 2.1 1.9 1.6 1.3 1.2 0.9 0.9 0.9
0.5 3.5 7.2 17.7 9.3 22.4 2.1 0.0 0.0 0.1 1.0 1.0 1.8 2.4 1.5 0.5 0.1 0.1 0.1 0.1 0.0 0.0 0.0 0.0 0.0 0.0 0.0 0.0 0.0 0.0 0.5 1.1 1.4 2.3 3.2 2.4 1.6 2.7 1.5 1.3 1.4 1.0 0.9 1.1
0.1 0.0 10.3 18.6 18.1 0.9 0.1 0.0 0.1 0.3 0.5 0.8 1.2 0.8 0.3 0.0 0.0 0.0 0.0 0.0 0.0 0.0 0.0 0.0 0.0 0.0 0.0 0.0 0.0 0.7 0.8 0.8 0.8 1.0 1.4 1.5 2.2 3.1 1.7 3.8 1.8 1.4 2.3 1.7
0.0 0.0 0.5 12.1 19.7 15.7 0.4 0.0 0.0 0.0 3.4 2.6 2.7 2.1 1.3 0.3 0.8 0.2 0.0 0.0 0.0 0.0 0.0 0.0 0.0 0.0 0.0 0.0 0.0 0.8 0.8 1.2 1.1 0.9 0.9 1.1 2.1 4.5 3.6 2.2 3.2 3.6 3.5 3.2
5.7 10.1 13.1 14.0 17.7 5.8 1.2 0.8 0.0 6.7 5.2 2.0 1.3 1.2 1.0 1.0 0.3 0.1 0.0 0.0 0.0 0.1 0.1 0.1 0.1 0.1 0.0 0.4 0.9 0.8 0.8 1.1 1.4 1.6 1.6 1.9 2.2 4.8 3.1 3.6 3.0 4.2 4.7 2.6
1.3 9.2 20.0 13.4 13.7 16.0 0.5 0.2 1.7 1.7 1.1 1.3 0.4 0.1 0.2 0.1 0.0 0.0 0.0 0.0 0.0 0.0 0.0 0.0 0.0 0.0 0.0 0.9 1.4 1.3 1.0 1.2 1.9 2.4 2.7 3.3 5.3 4.9 5.0 8.6 5.4 7.2 6.4 6.2
5.2 1.7 8.8 3.9 4.9 0.1 0.2 0.4 0.1 0.4 1.4 0.7 0.3 0.2 0.1 0.1 0.0 0.0 0.0 0.0 0.0 0.0 0.0 0.0 1.6 1.5 0.0 1.9 2.2 2.7 1.9 2.2 2.9 5.4 7.4 7.4 6.7 6.7 6.8 9.8 6.6 8.9 7.4 8.6
0.6 0.0 1.6 2.3 0.1 0.1 0.1 0.0 0.0 0.1 0.1 0.1 0.1 0.2 0.1 0.1 0.1 0.0 0.0 0.1 0.0 1.0 1.4 1.7 2.3 2.8 2.6 2.4 3.0 3.4 3.0 3.2 10.1 10.2 5.5 4.5 5.7 4.3 5.8 7.8 9.1 12.6 9.9 8.1
0.5 0.4 1.0 1.5 0.0 0.0 0.0 0.0 0.0 0.0 0.0 0.0 0.0 0.0 0.0 0.0 0.0 0.0 0.9 1.2 0.8 1.3 1.5 2.1 2.7 2.7 2.6 2.2 2.6 3.8 3.8 4.7 7.0 7.3 4.2 5.8 8.0 8.9 5.3 4.8 8.0 6.8 4.6 9.5
0.0 0.0 0.2 2.2 0.0 0.0 0.0 0.0 0.0 0.0 0.0 0.3 0.3 0.4 0.5 0.5 0.5 0.6 0.9 0.7 0.8 1.3 1.6 2.1 2.5 2.3 2.8 3.5 4.0 5.2 6.8 6.6 6.7 4.3 6.1 5.9 5.9 5.2 4.6 4.5 4.4 nan nan nan
Water_Equivalent
0.00 0.00 0.00 0.00 0.00 0.00 0.00 0.00 0.00 0.00 0.00 0.00 0.00 0.00 0.00 0.00 0.00 0.00 0.00 0.00 0.00 0.00 0.00 0.00 0.00 0.00 0.00 0.00 0.00 0.00 0.00 0.00 0.00 0.00 0.00 0.00 0.00 0.00 0.00 0.00 0.00 0.00 0.00 0.00
0.00 0.00 0.00 0.00 0.00 0.00 0.00 0.00 0.00 0.00 0.00 0.00 0.00 0.00 0.00 0.00 0.00 0.00 0.00 0.00 0.00 0.00 0.00 0.00 0.00 0.00 0.00 0.00 0.00 0.00 0.00 0.00 0.00 0.00 0.00 0.00 0.00 0.00 0.00 0.00 0.00 0.00 0.00 0.00
0.00 0.00 0.00 0.00 0.00 0.00 0.00 0.00 0.00 0.00 0.00 0.00 0.00 0.00 0.00 0.00 0.00 0.00 0.00 0.00 0.00 0.00 0.00 0.00 0.00 0.00 0.00 0.00 0.00 0.00 0.00 0.00 0.00 0.00 0.00 0.00 0.00 0.00 0.00 0.00 0.00 0.00 0.00 0.00
0.00 0.00 0.00 0.00 0.00 0.00 0.00 0.00 0.00 0.00 0.00 0.00 0.00 0.00 0.00 0.00 0.00 0.00 0.00 0.00 0.00 0.00 0.00 0.00 0.00 0.00 0.00 0.00 0.00 0.00 0.00 0.00 0.00 0.00 0.00 0.00 0.00 0.00 0.00 0.00 0.00 0.00 0.00 0.00
0.00 0.00 0.00 0.00 0.00 0.00 0.00 0.00 0.00 0.00 0.00 0.00 0.00 0.00 0.00 0.00 0.00 0.00 0.00 0.00 0.00 0.00 0.00 0.00 0.00 0.00 0.00 0.00 0.00 0.00 0.00 0.00 0.00 0.00 0.00 0.00 0.00 0.00 0.00 0.00 0.00 0.00 0.00 0.00
0.00 0.00 0.00 0.00 0.00 0.00 0.00 0.00 0.00 0.00 0.00 0.06 0.00 0.00 0.00 0.00 0.00 0.00 0.00 0.00 0.00 0.00 0.00 0.00 0.00 0.00 0.00 0.00 0.00 0.00 0.00 0.00 0.00 0.00 0.00 0.00 0.00 0.00 0.00 0.00 0.00 0.00 0.00 0.00
0.00 0.00 0.00 0.00 0.00 0.00 0.00 0.00 0.08 0.16 0.43 0.23 0.00 0.03 0.00 0.00 0.00 0.00 0.00 0.00 0.00 0.00 0.00 0.00 0.00 0.00 0.00 0.00 0.00 0.00 0.00 0.00 0.00 0.00 0.00 0.00 0.00 0.00 0.00 0.00 0.00 0.00 0.00 0.00
0.00 0.00 0.00 0.00 0.00 0.00 0.00 0.00 0.17 0.36 0.32 0.16 0.09 0.07 0.01 0.00 0.00 0.00 0.00 0.00 0.00 0.00 0.00 0.00 0.00 0.00 0.00 0.00 0.00 0.00 0.00 0.00 0.00 0.00 0.00 0.00 0.00 0.00 0.00 0.00 0.00 0.00 0.00 0.00
0.00 0.00 0.00 0.00 0.00 0.00 0.00 0.00 0.00 0.11 0.59 0.48 0.00 0.00 0.00 0.00 0.00 0.00 0.00 0.00 0.00 0.00 0.00 0.00 0.00 0.00 0.00 0.00 0.00 0.00 0.00 0.00 0.00 0.00 0.00 0.00 0.00 0.00 0.00 0.00 0.00 0.00 0.00 0.00
0.00 0.02 0.00 0.00 0.00 0.00 0.00 0.00 0.07 0.07 0.64 0.47 0.00 0.00 0.00 0.00 0.00 0.00 0.00 0.00 0.00 0.00 0.00 0.00 0.00 0.00 0.00 0.00 0.00 0.00 0.00 0.00 0.00 0.00 0.00 0.00 0.00 0.00 0.00 0.00 0.00 0.00 0.00 0.00
0.00 0.00 0.00 0.00 0.00 0.00 0.00 0.00 0.00 0.00 0.09 0.41 0.33 0.02 0.00 0.00 0.00 0.00 0.00 0.00 0.00 0.00 0.00 0.00 0.00 0.00 0.00 0.00 0.00 0.00 0.00 0.00 0.00 0.00 0.00 0.00 0.00 0.00 0.00 0.00 0.00 0.00 0.00 0.00
0.00 0.00 0.49 0.00 0.00 0.00 0.00 0.00 0.00 0.18 0.11 0.10 0.24 0.18 0.00 0.00 0.00 0.00 0.00 0.00 0.00 0.00 0.00 0.00 0.00 0.00 0.00 0.00 0.00 0.00 0.00 0.00 0.00 0.00 0.00 0.00 0.00 0.00 0.00 0.00 0.00 0.00 0.00 0.00
0.00 0.17 0.91 0.42 0.00 0.00 0.00 0.00 0.00 0.00 0.18 0.46 0.89 0.30 0.00 0.00 0.00 0.00 0.00 0.00 0.00 0.00 0.00 0.00 0.00 0.00 0.00 0.00 0.00 0.00 0.00 0.00 0.00 0.00 0.00 0.00 0.00 0.00 0.00 0.00 0.00 0.00 0.00 0.00
nan 0.11 0.24 0.34 0.10 0.00 0.06 0.01 0.00 0.01 0.48 0.25 0.20 0.02 0.00 0.00 0.00 0.00 0.00 0.00 0.00 0.00 0.00 0.00 0.00 0.00 0.00 0.00 0.00 0.00 0.00 0.00 0.00 0.00 0.00 0.00 0.00 0.00 0.00 0.00 0.00 0.00 0.00 0.00
0.00 0.63 0.06 0.04 0.00 0.02 0.08 0.05 0.00 0.00 0.00 0.10 0.04 0.12 0.07 0.12 0.07 0.02 0.00 0.00 0.00 0.00 0.00 0.00 0.00 0.00 0.00 0.00 0.00 0.00 0.00 0.00 0.00 0.00 0.00 0.00 0.00 0.00 0.02 0.07 0.09 0.08 0.07 0.00
0.00 0.71 0.17 0.53 0.02 0.03 0.15 0.05 0.07 0.07 0.06 0.05 0.00 0.00 0.03 0.01 0.00 0.00 0.01 0.00 0.00 0.00 0.00 0.00 0.00 0.00 0.00 0.00 0.00 0.00 0.00 0.00 0.00 0.00 0.00 0.00 0.14 0.17 0.18 0.17 0.12 0.09 0.08 0.08
0.11 0.55 1.33 1.73 0.15 0.12 0.85 0.17 0.00 0.00 0.00 0.00 0.05 0.17 0.22 0.07 0.02 0.01 0.02 0.01 0.01 0.00 0.00 0.00 0.00 0.00 0.00 0.00 0.00 0.00 0.00 0.05 0.16 0.20 0.28 0.25 0.22 0.19 0.16 0.13 0.12 0.09 0.09 0.09
0.09 0.64 1.22 2.09 1.21 2.28 0.35 0.00 0.00 0.02 0.11 0.13 0.23 0.32 0.20 0.06 0.01 0.02 0.02 0.02 0.00 0.00 0.00 0.00 0.00 0.00 0.00 0.00 0.00 0.00 0.07 0.12 0.14 0.24 0.33 0.24 0.16 0.28 0.16 0.13 0.14 0.10 0.09 0.11
0.02 0.01 1.12 2.10 1.99 0.16 0.02 0.00 0.01 0.03 0.05 0.10 0.15 0.11 0.04 0.01 0.00 0.00 0.00 0.00 0.00 0.00 0.00 0.00 0.00 0.00 0.00 0.00 0.00 0.07 0.08 0.08 0.08 0.10 0.15 0.15 0.22 0.31 0.17 0.37 0.17 0.13 0.22 0.17
0.00 0.00 0.07 1.30 2.14 1.61 0.05 0.00 0.00 0.01 0.38 0.36 0.39 0.28 0.18 0.05 0.09 0.03 0.00 0.00 0.00 0.00 0.00 0.00 0.00 0.00 0.00 0.00 0.00 0.08 0.08 0.12 0.11 0.09 0.09 0.11 0.21 0.44 0.35 0.21 0.31 0.36 0.35 0.32
0.73 1.24 1.50 1.67 2.04 0.83 0.26 0.14 0.01 0.72 0.65 0.37 0.19 0.18 0.13 0.13 0.04 0.01 0.00 0.00 0.00 0.01 0.02 0.02 0.01 0.01 0.00 0.04 0.09 0.09 0.08 0.11 0.14 0.16 0.16 0.19 0.21 0.47 0.30 0.35 0.30 0.42 0.46 0.26
0.15 1.01 2.15 1.44 1.48 1.67 0.08 0.04 0.17 0.20 0.17 0.21 0.06 0.02 0.03 0.01 0.01 0.00 0.00 0.00 0.00 0.00 0.00 0.00 0.01 0.01 0.01 0.10 0.15 0.14 0.10 0.13 0.19 0.23 0.26 0.32 0.51 0.48 0.49 0.86 0.53 0.72 0.63 0.62
0.59 0.21 0.94 0.47 0.62 0.03 0.04 0.08 0.03 0.07 0.24 0.13 0.05 0.03 0.02 0.02 0.01 0.00 0.00 0.00 0.00 0.00 0.00 0.00 0.18 0.16 0.01 0.21 0.23 0.28 0.18 0.20 0.27 0.53 0.74 0.74 0.65 0.66 0.67 0.98 0.64 0.88 0.73 0.87
0.09 0.00 0.25 0.31 0.01 0.01 0.01 0.00 0.00 0.02 0.03 0.02 0.02 0.02 0.02 0.02 0.01 0.00 0.00 0.01 0.00 0.12 0.16 0.19 0.26 0.29 0.28 0.26 0.30 0.34 0.29 0.31 1.02 1.02 0.54 0.42 0.55 0.44 0.54 0.77 0.91 1.28 0.99 0.80
0.09 0.09 0.17 0.22 0.01 0.00 0.00 0.00 0.00 0.00 0.00 0.01 0.00 0.00 0.01 0.01 0.01 0.00 0.12 0.16 0.10 0.14 0.16 0.22 0.27 0.27 0.26 0.22 0.24 0.37 0.34 0.42 0.65 0.70 0.38 0.54 0.77 0.87 0.50 0.45 0.78 0.67 0.45 0.94
0.00 0.00 0.03 0.26 0.00 0.00 0.00 0.00 0.00 0.00 0.01 0.04 0.04 0.06 0.06 0.07 0.07 0.08 0.12 0.09 0.11 0.16 0.17 0.22 0.24 0.21 0.23 0.29 0.33 0.46 0.63 0.62 0.64 0.38 0.58 0.57 0.58 0.50 0.44 0.44 0.41 nan nan nan
SL_Ratio
nan nan nan nan nan nan nan nan nan nan nan nan nan nan nan nan nan nan nan nan nan nan nan nan nan nan nan nan nan nan nan nan nan nan nan nan nan nan nan nan nan nan nan nan
nan nan nan nan nan nan nan nan nan nan nan nan nan nan nan nan nan nan nan nan nan nan nan nan nan nan nan nan nan nan nan nan nan nan nan nan nan nan nan nan nan nan nan nan
nan nan nan nan nan nan nan nan nan nan nan nan nan nan nan nan nan nan nan nan nan nan nan nan nan nan nan nan nan nan nan nan nan nan nan nan nan nan nan nan nan nan nan nan
nan nan nan nan nan nan nan nan nan nan nan nan nan nan nan nan nan nan nan nan nan nan nan nan nan nan nan nan nan nan nan nan nan nan nan nan nan nan nan nan nan nan nan nan
nan nan nan nan nan nan nan nan nan nan nan nan nan nan nan nan nan nan nan nan nan nan nan nan nan nan nan nan nan nan nan nan nan nan nan nan nan nan nan nan nan nan nan nan
nan nan nan nan nan nan nan nan nan nan nan 7.6 nan nan nan nan nan nan nan nan nan nan nan nan nan nan nan nan nan nan nan nan nan nan nan nan nan nan nan nan nan nan nan nan
nan nan nan nan nan nan nan nan 7.3 7.4 7.6 7.3 nan 7.3 nan nan nan nan nan nan nan nan nan nan nan nan nan nan nan nan nan nan nan nan nan nan nan nan nan nan nan nan nan nan
nan nan nan nan nan nan nan nan 7.2 8.0 7.6 6.8 7.7 7.4 4.6 nan nan nan nan nan nan nan nan nan nan nan nan nan nan nan nan nan nan nan nan nan nan nan nan nan nan nan nan nan
5.6 5.3 nan nan nan nan nan nan nan 7.6 8.5 7.6 7.5 nan nan nan nan nan nan nan nan nan nan nan nan nan nan nan nan nan nan nan nan nan nan nan nan nan nan nan nan nan nan nan
nan 6.8 nan nan nan nan nan nan 7.5 7.5 8.1 8.9 5.8 nan nan nan nan nan nan nan nan nan nan nan nan nan nan nan nan nan nan nan nan nan nan nan nan nan nan nan nan nan nan nan
nan 5.5 4.6 2.5 nan nan nan nan nan nan 7.4 7.6 7.7 6.9 nan nan nan nan nan nan nan nan nan nan nan nan nan nan nan nan nan nan nan nan nan nan nan nan nan nan nan nan nan nan
nan 6.3 6.7 3.3 nan nan nan nan nan 6.2 7.4 7.4 6.1 7.2 nan nan nan nan nan nan nan nan nan nan nan nan nan nan nan nan nan nan nan nan nan nan nan nan nan nan nan nan nan nan
nan 5.3 7.2 7.1 6.8 3.8 nan nan nan nan 6.2 7.3 8.1 7.4 nan nan nan nan nan nan nan nan nan nan nan nan nan nan nan nan nan nan nan nan nan nan nan nan nan nan nan nan nan nan
nan 4.8 5.4 6.8 6.9 5.0 6.7 5.9 3.3 6.1 7.0 6.6 6.5 6.8 nan 5.0 nan nan nan nan nan nan nan nan nan nan nan nan nan nan nan nan nan nan nan nan nan nan nan nan nan nan nan nan
nan 5.4 4.6 5.1 6.3 6.2 6.9 7.0 6.7 5.0 5.0 7.8 5.6 5.7 5.6 8.5 8.4 7.7 6.4 nan nan nan nan nan nan nan nan nan nan nan nan nan nan nan nan nan nan nan 8.3 9.1 9.5 9.6 9.7 nan
6.3 6.1 5.6 6.0 3.9 3.6 4.8 4.0 3.8 4.4 5.1 6.0 5.0 5.6 7.7 7.0 10.0 7.5 6.5 7.1 nan nan nan nan nan nan nan nan nan nan nan nan 7.5 8.6 8.5 8.2 9.7 9.9 9.9 10.0 9.9 10.0 10.0 10.0
5.6 5.1 6.5 8.1 4.9 5.5 8.1 5.7 5.0 nan 10.0 5.0 8.1 8.5 7.0 8.0 8.2 6.7 7.1 6.1 5.8 6.7 6.7 5.0 5.0 5.0 5.8 5.0 nan nan nan 8.1 9.4 9.3 8.7 9.4 9.9 10.0 10.0 10.0 10.0 10.0 10.0 10.0
5.4 5.6 5.9 8.5 7.7 9.8 6.2 nan nan 6.8 8.5 7.8 7.6 7.4 7.5 8.0 6.8 5.8 6.0 5.8 6.3 5.0 5.0 nan 6.0 5.0 5.0 10.0 5.0 nan 8.0 9.2 9.5 9.6 9.7 9.9 10.0 9.9 10.0 10.0 10.0 10.2 10.2 10.3
5.7 5.4 9.2 8.9 9.1 6.0 5.7 9.3 7.5 8.7 9.3 7.7 7.7 7.3 7.0 6.8 5.0 nan 5.0 5.4 5.0 nan nan nan nan nan nan nan nan 9.8 9.9 10.0 10.0 10.0 10.0 10.0 9.9 10.0 10.2 10.1 10.6 10.8 10.3 10.4
nan 10.0 6.8 9.3 9.2 9.7 8.3 7.7 nan 5.8 9.0 7.3 7.0 7.3 7.3 6.6 9.3 6.7 5.4 nan 5.0 nan nan 5.0 7.5 nan nan nan nan 9.9 10.0 10.0 10.0 10.0 10.1 10.2 10.2 10.1 10.3 10.5 10.4 10.1 10.0 10.0
7.9 8.2 8.7 8.4 8.7 6.9 4.7 5.6 3.5 9.3 8.1 5.5 6.6 6.6 7.3 7.6 6.6 5.9 5.0 5.0 5.7 6.3 6.5 6.2 6.5 7.1 6.3 9.2 9.6 9.8 9.8 9.9 9.9 10.0 10.3 10.3 10.4 10.2 10.3 10.2 10.1 10.1 10.2 10.3
8.3 9.1 9.3 9.3 9.2 9.6 5.7 6.0 10.1 8.5 6.4 6.1 6.4 5.8 6.1 6.0 5.5 5.6 5.0 nan 5.0 10.0 5.8 6.5 6.5 6.9 6.9 8.9 9.3 9.4 9.7 10.0 10.0 10.2 10.3 10.4 10.3 10.3 10.3 10.0 10.3 10.1 10.1 10.1
8.7 7.9 9.4 8.4 7.9 4.8 5.5 5.3 4.3 5.8 5.8 5.8 6.3 6.1 5.9 6.2 6.4 6.7 nan nan nan nan 5.0 5.0 9.0 9.3 8.8 9.1 9.6 9.8 10.6 10.6 10.5 10.2 10.1 10.1 10.2 10.2 10.1 10.0 10.2 10.1 10.1 9.9
6.9 6.2 6.5 7.5 5.7 6.0 5.4 4.1 5.0 5.3 5.5 5.3 6.0 6.5 6.1 6.4 6.2 5.8 6.7 7.1 5.0 8.8 8.7 8.9 9.2 9.7 9.5 9.4 9.8 9.9 10.3 10.4 10.0 10.0 10.3 10.6 10.4 9.7 10.6 10.2 10.0 9.9 10.0 10.1
5.3 4.6 5.6 6.8 4.3 3.8 5.0 nan 5.0 5.4 5.0 5.3 5.7 5.4 6.0 6.3 6.6 6.1 7.2 7.4 7.5 9.6 9.7 9.7 9.9 9.9 10.0 10.1 10.8 10.5 11.2 11.1 10.7 10.5 11.0 10.7 10.4 10.2 10.5 10.5 10.2 10.2 10.3 10.1
nan 5.0 8.2 8.6 nan nan 5.0 nan nan 5.0 5.3 7.3 7.2 7.2 7.3 7.1 7.1 7.3 7.6 7.4 7.7 8.2 9.2 9.9 10.4 10.9 12.2 12.1 11.9 11.2 10.9 10.6 10.5 11.1 10.6 10.4 10.3 10.3 10.2 10.3 10.6 nan nan nan